Location: Poughquag
(41.6090°N, 73.6820°W)
Time: 23:38:24
(UTC-05:00)

Altair - All Passes

Search period start: 28 November 2023 00:00
Search period end: 08 December 2023 00:00
Orbit: 1501 x 1682 km, 47.2° (Epoch: 28 November)

Date Brightness Start Highest point End Pass type
(mag) Time Alt. Az. Time Alt. Az. Time Alt. Az.
28 Nov - 06:56:58 10° SE 06:59:38 11° ESE 07:02:16 10° ESE daylight
28 Nov - 08:53:35 10° SSW 09:02:39 47° SE 09:11:25 10° ENE daylight
28 Nov - 10:57:30 10° WSW 11:07:03 79° NNW 11:16:19 10° ENE daylight
28 Nov - 13:03:17 10° WNW 13:12:32 62° N 13:21:38 10° E daylight
28 Nov - 15:08:32 10° WNW 15:17:48 89° SSW 15:27:02 10° ESE daylight
28 Nov - 17:13:46 10° WNW 17:21:44 35° SW 17:29:45 10° SSE visible
29 Nov - 08:28:34 10° SSW 08:37:31 44° SE 08:46:10 10° ENE daylight
29 Nov - 10:32:14 10° WSW 10:41:49 82° NNW 10:51:06 10° ENE daylight
29 Nov - 12:37:59 10° W 12:47:16 62° N 12:56:21 10° E daylight
29 Nov - 14:43:19 10° WNW 14:52:36 87° NNE 15:01:50 10° ESE daylight
29 Nov - 16:48:28 10° WNW 16:56:38 38° SW 17:04:51 10° SSE visible
30 Nov - 08:03:35 10° SSW 08:12:24 41° SE 08:20:55 10° ENE daylight
30 Nov - 10:06:58 10° WSW 10:16:36 85° NNW 10:25:55 10° ENE daylight
30 Nov - 12:12:42 10° W 12:22:00 62° N 12:31:07 10° E daylight
30 Nov - 14:18:06 10° WNW 14:27:24 84° NNE 14:36:37 10° ESE daylight
30 Nov - 16:23:11 10° WNW 16:31:33 41° SW 16:39:56 10° SSE daylight
01 Dec - 07:38:38 10° SSW 07:47:17 38° SE 07:55:39 10° ENE daylight
01 Dec - 09:41:43 10° WSW 09:51:23 89° NNW 10:00:44 10° ENE daylight
01 Dec - 11:47:23 10° W 11:56:44 62° N 12:05:51 10° ENE daylight
01 Dec - 13:52:52 10° WNW 14:02:12 81° NNE 14:11:24 10° ESE daylight
01 Dec - 15:57:55 10° WNW 16:06:27 45° SW 16:14:58 10° SSE daylight
02 Dec - 07:13:43 10° SSW 07:22:10 35° SE 07:30:20 10° ENE daylight
02 Dec - 09:16:29 10° WSW 09:26:10 87° SSE 09:35:32 10° ENE daylight
02 Dec - 11:22:05 10° W 11:31:28 63° N 11:40:36 10° ENE daylight
02 Dec - 13:27:38 10° WNW 13:36:59 78° NNE 13:46:10 10° ESE daylight
02 Dec - 15:32:39 10° WNW 15:41:20 48° SW 15:49:59 10° SSE daylight
02 Dec - 17:41:45 10° WSW 17:44:14 11° WSW 17:46:42 10° SW visible
03 Dec - 06:48:50 10° S 06:57:03 32° SE 07:05:01 10° ENE daylight
03 Dec - 08:51:16 10° WSW 09:00:58 83° SSE 09:10:20 10° ENE daylight
03 Dec - 10:56:46 10° W 11:06:12 63° N 11:15:22 10° ENE daylight
03 Dec - 13:02:23 10° WNW 13:11:45 75° NNE 13:20:56 10° ESE daylight
03 Dec - 15:07:24 10° WNW 15:16:13 52° SW 15:24:58 10° SSE daylight
03 Dec - 17:15:25 10° W 17:19:12 13° WSW 17:23:00 10° SSW visible
04 Dec - 06:23:59 10° S 06:31:57 29° SE 06:39:41 10° ENE visible
04 Dec - 08:26:03 10° SW 08:35:47 79° SSE 08:45:09 10° ENE daylight
04 Dec - 10:31:26 10° W 10:40:56 64° N 10:50:07 10° ENE daylight
04 Dec - 12:37:08 10° WNW 12:46:31 72° NNE 12:55:42 10° ESE daylight
04 Dec - 14:42:09 10° WNW 14:51:06 56° SW 14:59:56 10° SE daylight
04 Dec - 16:49:31 10° W 16:54:11 15° SW 16:58:52 10° SSW visible
05 Dec - 05:59:11 10° S 06:06:51 26° SE 06:14:18 10° ENE visible
05 Dec - 08:00:51 10° SW 08:10:35 75° SSE 08:19:57 10° ENE daylight
05 Dec - 10:06:08 10° W 10:15:40 65° N 10:24:53 10° ENE daylight
05 Dec - 12:11:52 10° WNW 12:21:17 70° NNE 12:30:27 10° E daylight
05 Dec - 14:16:55 10° WNW 14:25:58 60° SW 14:34:54 10° SE daylight
05 Dec - 16:23:46 10° W 16:29:08 17° SW 16:34:31 10° SSW daylight
06 Dec - 05:34:26 10° S 05:41:46 24° SE 05:48:53 10° E visible
06 Dec - 07:35:40 10° SW 07:45:24 71° SE 07:54:45 10° ENE daylight
06 Dec - 09:40:48 10° W 09:50:24 67° N 09:59:40 10° ENE daylight
06 Dec - 11:46:36 10° WNW 11:56:03 69° NNE 12:05:12 10° E daylight
06 Dec - 13:51:41 10° WNW 14:00:49 65° SW 14:09:49 10° SE daylight
06 Dec - 15:58:09 10° W 16:04:06 19° SW 16:10:03 10° SSW daylight
07 Dec - 05:09:45 10° S 05:16:40 22° SE 05:23:25 10° E visible
07 Dec - 07:10:30 10° SW 07:20:12 67° SE 07:29:33 10° ENE daylight
07 Dec - 09:15:29 10° W 09:25:08 68° NNW 09:34:26 10° ENE daylight
07 Dec - 11:21:20 10° WNW 11:30:47 67° NNE 11:39:56 10° E daylight
07 Dec - 13:26:26 10° WNW 13:35:40 69° SW 13:44:44 10° SE daylight
07 Dec - 15:32:37 10° W 15:39:03 22° SW 15:45:29 10° S daylight
